• In Russia
  • List of Countries
  • For 7 days
  • Water Temperature
  • Satellite Maps
  • Weather Map
  • Weather Widgets
  • user-avatar
    Login

    Hourly Weather Gjirokaster

    Today, 1 May, Monday

    Time Temperature Precipitation Wind Pressure Humidity
    00:00 +7°C° 0.1 mm 3 mps 648 mmHg 89%
    01:00 +6°C° 0.1 mm 2 mps 648 mmHg 90%
    02:00 +6°C° 0 mm 2 mps 648 mmHg 90%
    03:00 +5°C° 0 mm 2 mps 648 mmHg 90%
    04:00 +5°C° 0 mm 2 mps 648 mmHg 90%
    05:00 +7°C° 0 mm 2 mps 649 mmHg 84%
    06:00 +8°C° 0 mm 2 mps 649 mmHg 78%
    07:00 +10°C° 0 mm 2 mps 650 mmHg 72%
    08:00 +13°C° 0 mm 2 mps 650 mmHg 64%
    09:00 +15°C° 0 mm 2 mps 651 mmHg 55%
    10:00 +17°C° 0 mm 2 mps 652 mmHg 46%
    11:00 +17°C° 0.1 mm 3 mps 652 mmHg 47%
    12:00 +18°C° 0.1 mm 3 mps 652 mmHg 48%
    13:00 +18°C° 0.1 mm 4 mps 652 mmHg 49%
    14:00 +17°C° 0.5 mm 3 mps 651 mmHg 56%
    15:00 +16°C° 0.5 mm 3 mps 651 mmHg 62%
    16:00 +14°C° 0.5 mm 3 mps 651 mmHg 69%
    17:00 +12°C° 0.4 mm 3 mps 651 mmHg 77%
    18:00 +10°C° 0.4 mm 2 mps 650 mmHg 84%
    19:00 +8°C° 0.4 mm 2 mps 650 mmHg 92%
    20:00 +7°C° 0 mm 2 mps 650 mmHg 93%
    21:00 +8°C° 0 mm 1 mps 650 mmHg 93%
    22:00 +7°C° 0 mm 1 mps 650 mmHg 94%
    23:00 +7°C° 0 mm 1 mps 650 mmHg 94%

    Tomorrow, 2 May, Tuesday

    Time Temperature Precipitation Wind Pressure Humidity
    00:00 +6°C° 0 mm 1 mps 650 mmHg 94%
    01:00 +6°C° 0 mm 1 mps 650 mmHg 94%
    02:00 +6°C° 0 mm 1 mps 650 mmHg 94%
    03:00 +5°C° 0 mm 1 mps 650 mmHg 94%
    04:00 +5°C° 0 mm 1 mps 650 mmHg 95%
    05:00 +8°C° 0 mm 1 mps 651 mmHg 89%
    06:00 +10°C° 0 mm 1 mps 651 mmHg 83%
    07:00 +13°C° 0 mm 1 mps 652 mmHg 77%
    08:00 +14°C° 0 mm 1 mps 653 mmHg 68%
    09:00 +16°C° 0 mm 2 mps 653 mmHg 59%
    10:00 +18°C° 0 mm 2 mps 654 mmHg 49%
    11:00 +18°C° 0 mm 2 mps 654 mmHg 49%
    12:00 +18°C° 0 mm 3 mps 654 mmHg 48%
    13:00 +18°C° 0 mm 3 mps 654 mmHg 47%
    14:00 +18°C° 0.1 mm 3 mps 653 mmHg 51%
    15:00 +17°C° 0.1 mm 3 mps 653 mmHg 55%
    16:00 +16°C° 0.1 mm 3 mps 653 mmHg 58%
    17:00 +13°C° 0.1 mm 3 mps 652 mmHg 66%
    18:00 +12°C° 0.1 mm 2 mps 652 mmHg 74%
    19:00 +8°C° 0.1 mm 2 mps 652 mmHg 82%
    20:00 +8°C° 0 mm 2 mps 652 mmHg 83%
    21:00 +7°C° 0 mm 2 mps 652 mmHg 84%
    22:00 +8°C° 0 mm 1 mps 652 mmHg 84%
    23:00 +7°C° 0 mm 1 mps 652 mmHg 86%

    Day after tomorrow, 3 May, Wednesday

    Time Temperature Precipitation Wind Pressure Humidity
    00:00 +7°C° 0 mm 1 mps 651 mmHg 87%
    01:00 +7°C° 0 mm 1 mps 651 mmHg 88%
    02:00 +6°C° 0 mm 1 mps 651 mmHg 89%
    03:00 +6°C° 0 mm 1 mps 651 mmHg 89%
    04:00 +6°C° 0 mm 1 mps 651 mmHg 89%
    05:00 +8°C° 0 mm 1 mps 652 mmHg 82%
    06:00 +11°C° 0 mm 1 mps 652 mmHg 74%
    07:00 +13°C° 0 mm 1 mps 653 mmHg 67%
    08:00 +15°C° 0 mm 1 mps 653 mmHg 61%
    09:00 +16°C° 0 mm 2 mps 654 mmHg 55%
    10:00 +18°C° 0 mm 2 mps 654 mmHg 49%
    11:00 +18°C° 0.1 mm 3 mps 654 mmHg 49%
    12:00 +18°C° 0.1 mm 3 mps 654 mmHg 49%
    13:00 +19°C° 0.1 mm 3 mps 654 mmHg 49%
    14:00 +18°C° 0.3 mm 3 mps 653 mmHg 52%
    15:00 +17°C° 0.3 mm 3 mps 653 mmHg 55%
    16:00 +17°C° 0.3 mm 3 mps 653 mmHg 58%
    17:00 +14°C° 0.1 mm 2 mps 652 mmHg 67%
    18:00 +12°C° 0.1 mm 2 mps 652 mmHg 76%
    19:00 +8°C° 0.1 mm 2 mps 651 mmHg 84%
    20:00 +8°C° 0 mm 1 mps 651 mmHg 86%
    21:00 +8°C° 0 mm 1 mps 651 mmHg 88%
    22:00 +7°C° 0 mm 1 mps 651 mmHg 90%
    23:00 +7°C° 0 mm 1 mps 651 mmHg 90%

    4 May, Thursday

    Time Temperature Precipitation Wind Pressure Humidity
    00:00 +6°C° 0 mm 1 mps 650 mmHg 90%
    01:00 +6°C° 0 mm 1 mps 650 mmHg 91%
    02:00 +6°C° 0 mm 1 mps 650 mmHg 91%
    03:00 +5°C° 0 mm 1 mps 650 mmHg 91%
    04:00 +5°C° 0 mm 1 mps 649 mmHg 91%
    05:00 +7°C° 0 mm 1 mps 650 mmHg 83%
    06:00 +10°C° 0 mm 1 mps 651 mmHg 75%
    07:00 +11°C° 0 mm 0 mps 651 mmHg 67%
    08:00 +14°C° 0 mm 1 mps 652 mmHg 59%
    09:00 +15°C° 0 mm 1 mps 652 mmHg 51%
    10:00 +16°C° 0 mm 2 mps 652 mmHg 43%
    11:00 +17°C° 0 mm 2 mps 652 mmHg 42%
    12:00 +17°C° 0 mm 2 mps 652 mmHg 41%
    13:00 +18°C° 0 mm 3 mps 652 mmHg 41%
    14:00 +17°C° 0 mm 3 mps 652 mmHg 44%
    15:00 +16°C° 0 mm 3 mps 652 mmHg 48%
    16:00 +16°C° 0 mm 2 mps 651 mmHg 51%
    17:00 +13°C° 0 mm 2 mps 651 mmHg 63%
    18:00 +10°C° 0 mm 2 mps 650 mmHg 75%
    19:00 +8°C° 0 mm 1 mps 650 mmHg 87%
    20:00 +7°C° 0 mm 1 mps 650 mmHg 89%
    21:00 +7°C° 0 mm 1 mps 650 mmHg 91%
    22:00 +6°C° 0 mm 1 mps 650 mmHg 93%
    23:00 +5°C° 0 mm 1 mps 649 mmHg 93%

    5 May, Friday

    Time Temperature Precipitation Wind Pressure Humidity
    00:00 +5°C° 0 mm 1 mps 649 mmHg 93%
    01:00 +5°C° 0 mm 1 mps 649 mmHg 93%
    02:00 +5°C° 0 mm 1 mps 649 mmHg 92%
    03:00 +4°C° 0 mm 1 mps 649 mmHg 92%
    04:00 +3°C° 0 mm 2 mps 649 mmHg 91%
    05:00 +6°C° 0 mm 2 mps 649 mmHg 81%
    06:00 +8°C° 0 mm 2 mps 650 mmHg 71%
    07:00 +10°C° 0 mm 2 mps 651 mmHg 62%
    08:00 +13°C° 0 mm 2 mps 651 mmHg 56%
    09:00 +14°C° 0 mm 2 mps 651 mmHg 51%
    10:00 +14°C° 0 mm 3 mps 651 mmHg 46%
    11:00 +14°C° 0.3 mm 3 mps 651 mmHg 49%
    12:00 +14°C° 0.3 mm 3 mps 651 mmHg 53%
    13:00 +14°C° 0.3 mm 3 mps 651 mmHg 56%
    14:00 +13°C° 0.5 mm 3 mps 650 mmHg 59%
    15:00 +13°C° 0.5 mm 3 mps 650 mmHg 62%
    16:00 +12°C° 0.5 mm 3 mps 650 mmHg 65%
    17:00 +10°C° 0.1 mm 3 mps 650 mmHg 73%
    18:00 +8°C° 0.1 mm 3 mps 650 mmHg 81%
    19:00 +5°C° 0.1 mm 3 mps 649 mmHg 88%
    20:00 +5°C° 0 mm 2 mps 649 mmHg 89%
    21:00 +5°C° 0 mm 2 mps 649 mmHg 90%
    22:00 +4°C° 0 mm 2 mps 650 mmHg 91%
    23:00 +4°C° 0 mm 2 mps 649 mmHg 90%

    6 May, Saturday

    Time Temperature Precipitation Wind Pressure Humidity
    00:00 +3°C° 0 mm 2 mps 649 mmHg 90%
    01:00 +3°C° 0 mm 2 mps 649 mmHg 89%
    02:00 +3°C° 0 mm 2 mps 649 mmHg 88%
    03:00 +3°C° 0 mm 2 mps 649 mmHg 87%
    04:00 +2°C° 0 mm 2 mps 649 mmHg 85%
    05:00 +4°C° 0 mm 2 mps 650 mmHg 79%
    06:00 +6°C° 0 mm 2 mps 650 mmHg 73%
    07:00 +8°C° 0 mm 2 mps 651 mmHg 66%
    08:00 +10°C° 0 mm 3 mps 651 mmHg 58%
    09:00 +12°C° 0 mm 3 mps 652 mmHg 50%
    10:00 +14°C° 0 mm 3 mps 652 mmHg 42%
    11:00 +15°C° 0 mm 4 mps 652 mmHg 41%
    12:00 +15°C° 0 mm 4 mps 652 mmHg 40%
    13:00 +16°C° 0 mm 5 mps 652 mmHg 39%
    14:00 +16°C° 0 mm 5 mps 652 mmHg 41%
    15:00 +15°C° 0 mm 5 mps 652 mmHg 43%
    16:00 +15°C° 0 mm 4 mps 652 mmHg 46%
    17:00 +12°C° 0 mm 4 mps 651 mmHg 57%
    18:00 +9°C° 0 mm 3 mps 651 mmHg 69%
    19:00 +7°C° 0 mm 3 mps 650 mmHg 80%
    20:00 +6°C° 0 mm 2 mps 650 mmHg 81%
    21:00 +5°C° 0 mm 2 mps 650 mmHg 81%
    22:00 +4°C° 0 mm 2 mps 650 mmHg 82%
    23:00 +4°C° 0 mm 2 mps 650 mmHg 79%
    Show more